Change the Weather History Date:

Wednesday, October 19, 2011

  Actual Average Record
Temperature  
Mean Temperature 77 °F 78 °F  
Max Temperature 82 °F 87 °F 92 °F (1985)
Min Temperature 72 °F 69 °F 52 °F (1977)
Degree Days  
Heating Degree Days 0 0  
Month to date heating degree days 0 0  
Since 1 July heating degree days 0 0  
Cooling Degree Days 12 13  
Month to date cooling degree days 257 277  
Year to date cooling degree days 3791 3454  
Growing Degree Days 26 (Base 50)    
Moisture  
Dew Point 73 °F    
Average Humidity 75    
Maximum Humidity 97    
Minimum Humidity 53    
Precipitation  
Precipitation 1.03 in 0.10 in 2.46 in (1944)
Month to date precipitation 4.11 3.11  
Year to date precipitation 32.11 47.32  
Snow  
Snow 0.00 in - - ()
Month to date snowfall 0.0  
Since 1 July snowfall 0.0  
Since 1 September snowfall 0.0  
Snow Depth 0.00 in    
Sea Level Pressure  
Sea Level Pressure 29.67 in    
Wind  
Wind Speed 14 mph (WSW)    
Max Wind Speed 28 mph    
Max Gust Speed 38 mph    
Visibility 7 miles    
Events Rain , Thunderstorm    
T = Trace of Precipitation, MM = Missing Value Source: NWS Daily Summary

Daily Weather History Graph

Daily Weather History Graph

Search for Another Location

Airport or City:

Trip Planner

Search our weather history database for the weather conditions in past years. The results will help you decide how hot, cold, wet, or windy it might be!

Date:

Astronomy

Oct. 19, 2011 Rise Set
Actual Time 7:28 AM EDT 6:55 PM EDT
Civil Twilight 7:04 AM EDT 7:19 PM EDT
Nautical Twilight 6:37 AM EDT 7:45 PM EDT
Astronomical Twilight 6:10 AM EDT 8:12 PM EDT
Moon No Moon Rise 1:42 PM EDT (10/19)
Length of Visible Light 12h 14m
Length of Day
11h 27m
Waning Gibbous, 55% of the Moon is Illuminated
Oct 19
Waning Gibbous
Oct 19
Last Quarter
Oct 26
New
Nov 2
First Quarter
Nov 10
Full

Hourly Weather History & Observations

Time (EDT) Temp. Heat Index Dew Point Humidity Pressure Visibility Wind Dir Wind Speed Gust Speed Precip Events Conditions
12:53 AM 78.8 °F - 77.0 °F 94% 29.64 in 4.0 mi South 13.8 mph 20.7 mph N/A Rain , Thunderstorm Thunderstorms and Rain
1:19 AM 80.6 °F 87.1 °F 77.0 °F 89% 29.64 in 3.0 mi South 15.0 mph - 0.12 in Rain , Thunderstorm Heavy Thunderstorms and Rain
1:31 AM 80.6 °F 88.1 °F 78.8 °F 94% 29.63 in 6.0 mi South 13.8 mph - 0.13 in Rain , Thunderstorm Light Thunderstorms and Rain
1:53 AM 80.1 °F 86.4 °F 78.1 °F 94% 29.62 in 8.0 mi South 15.0 mph - 0.14 in   Mostly Cloudy
2:03 AM 80.6 °F 88.1 °F 78.8 °F 94% 29.61 in 7.0 mi South 12.7 mph - N/A Thunderstorm Overcast
2:36 AM 78.8 °F - 77.0 °F 94% 29.61 in 6.0 mi South 12.7 mph - 0.00 in Thunderstorm Overcast
2:46 AM 78.8 °F - 77.0 °F 94% 29.61 in 4.0 mi South 8.1 mph - 0.02 in Rain , Thunderstorm Thunderstorms and Rain
2:53 AM 79.0 °F - 77.0 °F 94% 29.60 in 4.0 mi South 10.4 mph - 0.04 in Rain , Thunderstorm Light Thunderstorms and Rain
3:00 AM 78.8 °F - 78.8 °F 100% 29.61 in 1.8 mi SSW 10.4 mph - 0.11 in Rain , Thunderstorm Heavy Thunderstorms and Rain
3:06 AM 78.8 °F - 78.8 °F 100% 29.60 in 0.8 mi South 6.9 mph - 0.39 in Rain , Thunderstorm Heavy Thunderstorms and Rain
3:16 AM 78.8 °F - 78.8 °F 100% 29.60 in 2.5 mi South 11.5 mph 19.6 mph 0.41 in Rain , Thunderstorm Light Rain
3:24 AM 80.6 °F 88.1 °F 78.8 °F 94% 29.59 in 3.0 mi SSW 10.4 mph - 0.46 in Rain Heavy Rain
3:31 AM 80.6 °F 88.1 °F 78.8 °F 94% 29.59 in 4.0 mi South 8.1 mph - 0.47 in Rain , Thunderstorm Rain
3:39 AM 80.6 °F 88.1 °F 78.8 °F 94% 29.60 in 1.8 mi SW 15.0 mph 24.2 mph 0.59 in Rain , Thunderstorm Heavy Thunderstorms and Rain
3:53 AM 77.0 °F - 75.9 °F 96% 29.59 in 2.0 mi SSW 20.7 mph 27.6 mph 0.75 in Rain , Thunderstorm Light Thunderstorms and Rain
3:56 AM 77.0 °F - 75.2 °F 94% 29.59 in 4.0 mi SSW 16.1 mph 26.5 mph 0.00 in Rain , Thunderstorm Light Thunderstorms and Rain
4:06 AM 78.8 °F - 75.2 °F 89% 29.59 in 7.0 mi SW 16.1 mph 21.9 mph 0.00 in Thunderstorm Overcast
4:25 AM 78.8 °F - 75.2 °F 89% 29.58 in 8.0 mi SW 12.7 mph - 0.00 in   Overcast
4:29 AM 78.8 °F - 75.2 °F 89% 29.58 in 7.0 mi SW 13.8 mph - 0.00 in Thunderstorm Overcast
4:37 AM 78.8 °F - 77.0 °F 94% 29.58 in 4.0 mi SW 10.4 mph - 0.02 in Rain , Thunderstorm Light Rain
4:48 AM 78.8 °F - 77.0 °F 94% 29.58 in 4.0 mi SSW 10.4 mph - 0.03 in Rain , Thunderstorm Light Rain
4:53 AM 78.1 °F - 77.0 °F 96% 29.58 in 1.8 mi SW 13.8 mph 19.6 mph 0.11 in Rain , Thunderstorm Heavy Thunderstorms and Rain
5:04 AM 78.8 °F - 75.2 °F 89% 29.59 in 3.0 mi SSW 12.7 mph 24.2 mph 0.01 in Rain , Thunderstorm Light Thunderstorms and Rain
5:26 AM 78.8 °F - 75.2 °F 89% 29.58 in 8.0 mi SW 6.9 mph - 0.01 in   Scattered Clouds
5:53 AM 78.1 °F - 77.0 °F 96% 29.60 in 8.0 mi SW 9.2 mph - 0.01 in   Clear
6:53 AM 79.0 °F - 75.9 °F 90% 29.61 in 10.0 mi WSW 10.4 mph - N/A   Mostly Cloudy
7:53 AM 79.0 °F - 75.0 °F 88% 29.62 in 9.0 mi West 9.2 mph - N/A   Clear
8:53 AM 79.0 °F - 75.0 °F 88% 29.66 in 9.0 mi West 8.1 mph - N/A   Partly Cloudy
9:53 AM 80.1 °F 85.1 °F 75.0 °F 85% 29.68 in 8.0 mi West 6.9 mph - N/A   Scattered Clouds
10:53 AM 80.1 °F 84.5 °F 73.9 °F 81% 29.69 in 10.0 mi West 10.4 mph - N/A   Partly Cloudy
11:53 AM 80.6 °F 85.4 °F 73.4 °F 79% 29.71 in 10.0 mi West 10.4 mph - N/A   Clear
12:53 PM 81.0 °F 85.8 °F 73.0 °F 77% 29.71 in 10.0 mi WSW 12.7 mph - N/A   Partly Cloudy
1:53 PM 80.1 °F 84.2 °F 73.0 °F 79% 29.71 in 8.0 mi WNW 21.9 mph 28.8 mph N/A   Mostly Cloudy
2:06 PM 78.8 °F - 73.4 °F 83% 29.71 in 7.0 mi WNW 16.1 mph 26.5 mph N/A   Mostly Cloudy
2:13 PM 78.8 °F - 73.4 °F 83% 29.71 in 7.0 mi WNW 17.3 mph 26.5 mph N/A   Mostly Cloudy
2:24 PM 78.8 °F - 71.6 °F 78% 29.71 in 8.0 mi WNW 20.7 mph 26.5 mph N/A   Mostly Cloudy
2:53 PM 79.0 °F - 71.1 °F 77% 29.70 in 9.0 mi WNW 17.3 mph 25.3 mph N/A   Scattered Clouds
3:50 PM 78.8 °F - 69.8 °F 74% 29.71 in 8.0 mi WNW 16.1 mph 24.2 mph N/A   Overcast
3:53 PM 79.0 °F - 70.0 °F 74% 29.71 in 8.0 mi WNW 18.4 mph 24.2 mph N/A   Overcast
4:06 PM 78.8 °F - 69.8 °F 74% 29.72 in 8.0 mi WNW 17.3 mph 25.3 mph N/A   Overcast
4:25 PM 78.8 °F - 69.8 °F 74% 29.72 in 9.0 mi WNW 15.0 mph 23.0 mph N/A   Overcast
4:53 PM 75.9 °F - 69.1 °F 79% 29.73 in 8.0 mi WNW 17.3 mph 25.3 mph N/A   Overcast
5:08 PM 77.0 °F - 69.8 °F 78% 29.74 in 8.0 mi WNW 16.1 mph 26.5 mph N/A   Overcast
5:53 PM 77.0 °F - 66.9 °F 71% 29.75 in 8.0 mi WNW 12.7 mph 24.2 mph N/A   Overcast
6:53 PM 75.9 °F - 64.9 °F 69% 29.79 in 9.0 mi WNW 19.6 mph 25.3 mph N/A   Overcast
7:53 PM 73.9 °F - 62.1 °F 66% 29.82 in 10.0 mi NW 18.4 mph 25.3 mph N/A   Overcast
8:53 PM 73.0 °F - 57.9 °F 59% 29.85 in 10.0 mi WNW 13.8 mph 25.3 mph N/A   Partly Cloudy
9:53 PM 73.0 °F - 55.9 °F 55% 29.88 in 10.0 mi WNW 11.5 mph 25.3 mph N/A   Scattered Clouds
10:53 PM 72.0 °F - 55.9 °F 57% 29.91 in 10.0 mi WNW 13.8 mph 19.6 mph N/A   Mostly Cloudy
11:53 PM 73.0 °F - 55.0 °F 53% 29.92 in 10.0 mi WNW 11.5 mph 19.6 mph N/A   Mostly Cloudy